Date String (YYYY-MM-DD hh:mm:ss) UTC,Instrument flags,absolute air pressure of the measurement (hPa),sample flow rate (lpm),inlet stack bypass flow (lpm),air temperature of the measurement (°C),ambient temperature measured by the external sensor (°C),aerosol sample conditioner tube jacket temperature (°C),OPC LED temperature (°C),internal box temperature (°C),relative humidity of the measurement (%),span deviation,mass concentration of particles derived from Lorenz-Mie calculation of OPC scattering (μg/m³),mass concentration of particles derived from Lorenz-Mie calculation of OPC scattering (μg/m³),mass concentration of particles derived from Lorenz-Mie calculation of OPC scattering (μg/m³)
DateTimeUTC,F1_M11,P_M11,Q1_M11,Q2_M11,T1_M11,T2_M11,T3_M11,T4_M11,T5_M11,U1_M11,ZSPAN_M11,X0_M11,X2_M11,X1_M11
2023-09-02 04:00:00,SystemResetWarning,0831.1,4.99,000.00,027.5,024.8,000.0,035.8,028.9,21.5,0000.0,0009.91,0003.83,0003.04
2023-09-02 04:01:00,SystemResetWarning,0831.0,4.99,000.00,027.5,025.2,000.0,035.8,029.1,21.6,0000.0,0010.32,0003.79,0003.04
2023-09-02 04:02:00,SystemResetWarning,0831.0,5.00,000.00,027.6,025.6,000.0,035.9,029.2,21.6,0000.0,0010.49,0003.78,0003.03
2023-09-02 04:03:00,SystemResetWarning,0831.0,5.01,000.00,027.6,026.0,000.0,035.9,029.3,21.5,0000.0,0010.80,0003.73,0002.99
2023-09-02 04:04:00,SystemResetWarning,0831.0,4.99,000.00,027.7,026.3,000.0,035.9,029.4,21.4,0000.0,0011.01,0003.72,0002.96
2023-09-02 04:05:00,SystemResetWarning,0831.0,4.99,000.00,027.7,026.5,000.0,035.9,029.5,21.4,0000.0,0010.36,0003.69,0002.96
2023-09-02 04:06:00,SystemResetWarning,0831.0,5.00,000.00,027.8,026.7,000.0,036.0,029.6,21.2,0000.0,0009.83,0003.70,0002.96
2023-09-02 04:07:00,SystemResetWarning,0830.9,4.99,000.00,027.8,026.3,000.0,036.0,029.5,20.9,0000.0,0009.61,0003.71,0002.95
2023-09-02 04:08:00,SystemResetWarning,0831.0,5.00,000.00,027.7,024.6,000.0,035.9,029.0,21.2,0000.0,0009.27,0003.67,0002.94
2023-09-02 04:09:00,SystemResetWarning,0830.9,5.01,000.00,027.6,024.0,000.0,035.8,028.8,21.4,0000.0,0009.02,0003.63,0002.93
2023-09-02 04:10:00,SystemResetWarning,0831.0,5.01,000.00,027.5,024.2,000.0,035.8,028.8,21.7,0000.0,0008.89,0003.59,0002.92
2023-09-02 04:11:00,SystemResetWarning,0831.0,4.99,000.00,027.5,024.6,000.0,035.8,028.8,21.8,0000.0,0008.75,0003.56,0002.90
2023-09-02 04:12:00,SystemResetWarning,0831.0,5.00,000.00,027.5,025.0,000.0,035.8,029.0,21.8,0000.0,0008.20,0003.58,0002.89
2023-09-02 04:13:00,SystemResetWarning,0831.1,5.00,000.00,027.5,025.4,000.0,035.9,029.1,21.8,0000.0,0008.45,0003.56,0002.87
2023-09-02 04:14:00,SystemResetWarning,0831.1,5.00,000.00,027.6,025.8,000.0,035.9,029.3,21.7,0000.0,0008.63,0003.58,0002.87
2023-09-02 04:15:00,SystemResetWarning,0831.1,5.00,000.00,027.6,026.1,000.0,035.9,029.4,21.6,0000.0,0008.24,0003.54,0002.87
2023-09-02 04:16:00,SystemResetWarning,0831.2,5.00,000.00,027.7,026.4,000.0,035.9,029.4,21.8,0000.0,0008.09,0003.51,0002.85
2023-09-02 04:17:00,SystemResetWarning,0831.2,5.00,000.00,027.7,026.6,000.0,036.0,029.5,22.1,0000.0,0007.95,0003.46,0002.84
2023-09-02 04:18:00,SystemResetWarning,0831.2,5.00,000.00,027.8,026.8,000.0,036.0,029.6,22.2,0000.0,0008.31,0003.45,0002.85
2023-09-02 04:19:00,SystemResetWarning,0831.2,4.99,000.00,027.8,025.9,000.0,036.0,029.3,22.4,0000.0,0008.57,0003.46,0002.85
2023-09-02 04:20:00,SystemResetWarning,0831.1,4.99,000.00,027.7,024.3,000.0,035.9,028.8,22.8,0000.0,0008.57,0003.47,0002.85
2023-09-02 04:21:00,SystemResetWarning,0831.1,5.01,000.00,027.6,024.0,000.0,035.8,028.8,22.9,0000.0,0008.90,0003.51,0002.86
2023-09-02 04:22:00,SystemResetWarning,0831.1,5.02,000.00,027.5,024.3,000.0,035.8,028.7,23.0,0000.0,0009.46,0003.54,0002.86
2023-09-02 04:23:00,SystemResetWarning,0831.1,4.99,000.00,027.5,024.7,000.0,035.8,028.9,23.1,0000.0,0009.63,0003.54,0002.85
2023-09-02 04:24:00,SystemResetWarning,0831.1,4.99,000.00,027.5,025.1,000.0,035.9,029.0,23.0,0000.0,0009.23,0003.54,0002.86
2023-09-02 04:25:00,SystemResetWarning,0831.1,5.00,000.00,027.5,025.5,000.0,035.9,029.1,23.1,0000.0,0009.64,0003.54,0002.88
2023-09-02 04:26:00,SystemResetWarning,0831.1,5.01,000.00,027.6,025.8,000.0,035.9,029.2,23.1,0000.0,0009.46,0003.58,0002.90
2023-09-02 04:27:00,SystemResetWarning,0831.1,5.00,000.00,027.6,026.1,000.0,035.9,029.4,23.1,0000.0,0009.98,0003.66,0002.93
2023-09-02 04:28:00,SystemResetWarning,0831.2,5.00,000.00,027.7,026.4,000.0,036.0,029.4,23.1,0000.0,0010.62,0003.72,0002.95
2023-09-02 04:29:00,SystemResetWarning,0831.1,4.99,000.00,027.7,026.6,000.0,036.0,029.5,23.2,0000.0,0011.08,0003.72,0002.94
2023-09-02 04:30:00,SystemResetWarning,0831.1,5.00,000.00,027.8,026.8,000.0,036.0,029.6,23.2,0000.0,0010.88,0003.69,0002.95
2023-09-02 04:31:00,SystemResetWarning,0831.1,5.00,000.00,027.9,026.9,000.0,036.1,029.7,23.1,0000.0,0011.27,0003.73,0002.98
2023-09-02 04:32:00,SystemResetWarning,0831.1,4.98,000.00,027.8,025.6,000.0,036.0,029.3,23.1,0000.0,0011.29,0003.75,0003.00
2023-09-02 04:33:00,SystemResetWarning,0831.1,5.00,000.00,027.7,024.1,000.0,035.9,028.8,23.3,0000.0,0010.89,0003.76,0003.01
2023-09-02 04:34:00,SystemResetWarning,0831.1,5.00,000.00,027.6,024.0,000.0,035.9,028.8,23.5,0000.0,0010.81,0003.77,0003.03
2023-09-02 04:35:00,SystemResetWarning,0831.1,5.01,000.00,027.5,024.3,000.0,035.9,028.8,23.6,0000.0,0011.36,0003.82,0003.04
2023-09-02 04:36:00,SystemResetWarning,0831.1,5.00,000.00,027.5,024.7,000.0,035.9,028.9,23.6,0000.0,0010.50,0003.81,0003.03
2023-09-02 04:37:00,SystemResetWarning,0831.1,4.99,000.00,027.5,025.2,000.0,035.9,029.1,23.5,0000.0,0010.32,0003.79,0003.04
2023-09-02 04:38:00,SystemResetWarning,0831.2,5.00,000.00,027.6,025.6,000.0,035.9,029.2,23.4,0000.0,0009.84,0003.73,0003.05
2023-09-02 04:39:00,SystemResetWarning,0831.1,5.01,000.00,027.6,025.9,000.0,035.9,029.3,23.3,0000.0,0009.31,0003.74,0003.05
2023-09-02 04:40:00,SystemResetWarning,0831.1,5.01,000.00,027.7,026.3,000.0,036.0,029.4,23.2,0000.0,0008.60,0003.76,0003.08
2023-09-02 04:41:00,SystemResetWarning,0831.1,5.00,000.00,027.7,026.5,000.0,036.0,029.5,23.0,0000.0,0008.88,0003.81,0003.10
2023-09-02 04:42:00,SystemResetWarning,0831.1,5.00,000.00,027.8,026.7,000.0,036.0,029.6,22.8,0000.0,0009.23,0003.82,0003.11
2023-09-02 04:43:00,SystemResetWarning,0831.1,4.99,000.00,027.9,026.6,000.0,036.0,029.6,22.7,0000.0,0009.10,0003.81,0003.11
2023-09-02 04:44:00,SystemResetWarning,0831.1,5.00,000.00,027.8,025.0,000.0,036.0,029.0,22.7,0000.0,0009.70,0003.82,0003.12
2023-09-02 04:45:00,SystemResetWarning,0831.1,5.00,000.00,027.6,023.9,000.0,035.9,028.8,23.0,0000.0,0010.10,0003.83,0003.13
2023-09-02 04:46:00,SystemResetWarning,0831.2,5.01,000.00,027.6,024.0,000.0,035.9,028.8,23.1,0000.0,0009.60,0003.81,0003.14
2023-09-02 04:47:00,SystemResetWarning,0831.2,5.00,000.00,027.5,024.4,000.0,035.9,028.8,23.3,0000.0,0009.69,0003.83,0003.14
2023-09-02 04:48:00,SystemResetWarning,0831.2,5.00,000.00,027.5,024.8,000.0,035.9,028.9,23.3,0000.0,0009.77,0003.85,0003.14
2023-09-02 04:49:00,SystemResetWarning,0831.2,5.00,000.00,027.5,025.2,000.0,035.9,029.1,23.3,0000.0,0009.93,0003.90,0003.15
2023-09-02 04:50:00,SystemResetWarning,0831.3,5.01,000.00,027.6,025.6,000.0,035.9,029.2,23.2,0000.0,0009.87,0003.86,0003.15
2023-09-02 04:51:00,SystemResetWarning,0831.3,4.99,000.00,027.6,025.9,000.0,035.9,029.3,23.2,0000.0,0010.38,0003.88,0003.15
2023-09-02 04:52:00,SystemResetWarning,0831.3,4.99,000.00,027.7,026.2,000.0,036.0,029.4,23.0,0000.0,0010.92,0003.89,0003.15
2023-09-02 04:53:00,SystemResetWarning,0831.3,4.99,000.00,027.7,026.5,000.0,036.0,029.5,23.0,0000.0,0011.75,0003.91,0003.16
2023-09-02 04:54:00,SystemResetWarning,0831.3,5.00,000.00,027.8,026.7,000.0,036.0,029.6,22.9,0000.0,0012.30,0003.95,0003.16
2023-09-02 04:55:00,SystemResetWarning,0831.3,5.01,000.00,027.8,026.9,000.0,036.1,029.7,22.9,0000.0,0012.49,0003.98,0003.16
2023-09-02 04:56:00,SystemResetWarning,0831.3,4.99,000.00,027.9,026.5,000.0,036.0,029.5,22.8,0000.0,0012.98,0003.99,0003.15
2023-09-02 04:57:00,SystemResetWarning,0831.3,5.00,000.00,027.8,024.7,000.0,036.0,029.0,22.9,0000.0,0012.98,0004.00,0003.15
2023-09-02 04:58:00,SystemResetWarning,0831.2,5.01,000.00,027.6,023.9,000.0,035.9,028.8,23.1,0000.0,0012.95,0004.01,0003.15
2023-09-02 04:59:00,SystemResetWarning,0831.3,5.01,000.00,027.6,024.1,000.0,035.9,028.8,23.3,0000.0,0013.90,0004.04,0003.14
